Time,TemperatureF,DewpointF,PressureIn,WindDirection,WindDirectionDegrees,WindSpeedMPH,WindSpeedGustMPH,Humidity,HourlyPrecipIn,Conditions,Clouds,dailyrainin,SoftwareType,DateUTC
2013-05-30 10:32:00,63.0,-99.9,29.86,NW,315,3.0,10.0,0,-99.99,,,0.01,,2013-05-30 14:32:00,
2013-05-30 10:42:00,63.0,-99.9,29.86,NW,315,3.0,10.0,0,-99.99,,,0.01,,2013-05-30 14:42:00,
2013-05-30 10:52:00,63.0,-99.9,29.86,NW,315,3.0,10.0,0,-99.99,,,0.01,,2013-05-30 14:52:00,
2013-05-30 11:01:00,63.0,-99.9,29.86,NW,315,3.0,10.0,0,-99.99,,,0.01,,2013-05-30 15:01:00,
2013-05-30 11:03:00,66.0,-99.9,29.85,West,270,4.0,10.0,0,-99.99,,,0.01,,2013-05-30 15:03:00,
2013-05-30 11:33:00,66.0,-99.9,29.85,West,270,4.0,10.0,0,-99.99,,,0.01,,2013-05-30 15:33:00,
2013-05-30 11:43:00,66.0,-99.9,29.85,West,270,4.0,10.0,0,-99.99,,,0.01,,2013-05-30 15:43:00,
2013-05-30 11:53:00,66.0,-99.9,29.85,West,270,4.0,10.0,0,-99.99,,,0.01,,2013-05-30 15:53:00,
2013-05-30 12:03:00,68.0,-99.9,29.84,West,270,4.0,10.0,0,-99.99,,,0.01,,2013-05-30 16:03:00,
2013-05-30 12:33:00,68.0,-99.9,29.84,West,270,4.0,10.0,0,-99.99,,,0.01,,2013-05-30 16:33:00,
2013-05-30 12:42:00,68.0,-99.9,29.84,West,270,4.0,10.0,0,-99.99,,,0.01,,2013-05-30 16:42:00,
2013-05-30 12:53:00,68.0,-99.9,29.84,West,270,4.0,10.0,0,-99.99,,,0.01,,2013-05-30 16:53:00,
2013-05-30 13:32:00,70.0,-99.9,29.83,WNW,292,9.0,14.0,0,-99.99,,,0.01,,2013-05-30 17:32:00,
2013-05-30 13:42:00,70.0,-99.9,29.83,WNW,292,9.0,14.0,0,-99.99,,,0.01,,2013-05-30 17:42:00,
2013-05-30 13:52:00,70.0,-99.9,29.83,WNW,292,9.0,14.0,0,-99.99,,,0.01,,2013-05-30 17:52:00,
2013-05-30 14:02:00,70.0,-99.9,29.83,WNW,292,9.0,14.0,0,-99.99,,,0.01,,2013-05-30 18:02:00,
2013-05-30 14:32:00,70.0,-99.9,29.84,NNW,337,9.0,16.0,0,-99.99,,,0.01,,2013-05-30 18:32:00,
2013-05-30 14:43:00,70.0,-99.9,29.84,NNW,337,9.0,16.0,0,-99.99,,,0.01,,2013-05-30 18:43:00,
2013-05-30 14:52:00,70.0,-99.9,29.84,NNW,337,9.0,16.0,0,-99.99,,,0.01,,2013-05-30 18:52:00,
2013-05-30 15:02:00,70.0,-99.9,29.84,NNW,337,9.0,16.0,0,-99.99,,,0.01,,2013-05-30 19:02:00,
2013-05-30 15:32:00,71.0,-99.9,29.84,East,90,3.0,14.0,0,-99.99,,,0.01,,2013-05-30 19:32:00,
2013-05-30 15:42:00,71.0,-99.9,29.84,East,90,3.0,14.0,0,-99.99,,,0.01,,2013-05-30 19:42:00,
2013-05-30 15:53:00,71.0,-99.9,29.84,East,90,3.0,14.0,0,-99.99,,,0.01,,2013-05-30 19:53:00,
2013-05-30 16:02:00,71.0,-99.9,29.84,East,90,3.0,14.0,0,-99.99,,,0.01,,2013-05-30 20:02:00,
2013-05-30 16:33:00,74.0,-99.9,29.84,NW,315,5.0,14.0,0,-99.99,,,0.01,,2013-05-30 20:33:00,
2013-05-30 16:42:00,74.0,-99.9,29.84,NW,315,5.0,14.0,0,-99.99,,,0.01,,2013-05-30 20:42:00,
2013-05-30 16:52:00,74.0,-99.9,29.84,NW,315,5.0,14.0,0,-99.99,,,0.01,,2013-05-30 20:52:00,
2013-05-30 17:02:00,74.0,-99.9,29.84,NW,315,5.0,14.0,0,-99.99,,,0.01,,2013-05-30 21:02:00,
2013-05-30 17:03:00,72.0,-99.9,29.86,NE,45,2.0,19.0,0,-99.99,,,0.01,,2013-05-30 21:03:00,
2013-05-30 17:33:00,72.0,-99.9,29.86,NE,45,2.0,19.0,0,-99.99,,,0.01,,2013-05-30 21:33:00,
2013-05-30 17:43:00,72.0,-99.9,29.86,NE,45,2.0,19.0,0,-99.99,,,0.01,,2013-05-30 21:43:00,
2013-05-30 17:53:00,72.0,-99.9,29.86,NE,45,2.0,19.0,0,-99.99,,,0.01,,2013-05-30 21:53:00,
2013-05-30 18:33:00,73.0,-99.9,29.87,NW,315,4.0,12.0,0,-99.99,,,0.01,,2013-05-30 22:33:00,
2013-05-30 18:42:00,73.0,-99.9,29.87,NW,315,4.0,12.0,0,-99.99,,,0.01,,2013-05-30 22:42:00,
2013-05-30 18:52:00,73.0,-99.9,29.87,NW,315,4.0,12.0,0,-99.99,,,0.01,,2013-05-30 22:52:00,
2013-05-30 19:02:00,73.0,-99.9,29.87,NW,315,4.0,12.0,0,-99.99,,,0.01,,2013-05-30 23:02:00,
2013-05-30 20:32:00,68.0,-99.9,29.88,West,270,1.0,6.0,0,-99.99,,,-99.99,,2013-05-31 00:32:00,
2013-05-30 20:42:00,68.0,-99.9,29.88,West,270,1.0,6.0,0,-99.99,,,-99.99,,2013-05-31 00:42:00,
2013-05-30 20:52:00,68.0,-99.9,29.88,West,270,1.0,6.0,0,-99.99,,,-99.99,,2013-05-31 00:52:00,
2013-05-30 21:01:00,68.0,-99.9,29.88,West,270,1.0,6.0,0,-99.99,,,-99.99,,2013-05-31 01:01:00,
2013-05-30 21:32:00,62.0,-99.9,29.89,SW,225,2.0,5.0,0,-99.99,,,0.00,,2013-05-31 01:32:00,
2013-05-30 21:42:00,62.0,-99.9,29.89,SW,225,2.0,5.0,0,-99.99,,,0.00,,2013-05-31 01:42:00,
2013-05-30 21:52:00,62.0,-99.9,29.89,SW,225,2.0,5.0,0,-99.99,,,0.00,,2013-05-31 01:52:00,
2013-05-30 22:02:00,62.0,-99.9,29.89,SW,225,2.0,5.0,0,-99.99,,,0.00,,2013-05-31 02:02:00,
2013-05-30 22:32:00,59.0,-99.9,29.90,SW,225,0.0,5.0,0,-99.99,,,-99.99,,2013-05-31 02:32:00,
2013-05-30 22:42:00,59.0,-99.9,29.90,SW,225,0.0,5.0,0,-99.99,,,-99.99,,2013-05-31 02:42:00,
2013-05-30 22:52:00,59.0,-99.9,29.90,SW,225,0.0,5.0,0,-99.99,,,-99.99,,2013-05-31 02:52:00,
2013-05-30 23:01:00,59.0,-99.9,29.90,SW,225,0.0,5.0,0,-99.99,,,-99.99,,2013-05-31 03:01:00,
2013-05-30 23:03:00,60.0,-99.9,29.90,SW,225,5.0,8.0,0,-99.99,,,0.00,,2013-05-31 03:03:00,
2013-05-30 23:33:00,60.0,-99.9,29.90,SW,225,5.0,8.0,0,-99.99,,,0.00,,2013-05-31 03:33:00,
2013-05-30 23:43:00,60.0,-99.9,29.90,SW,225,5.0,8.0,0,-99.99,,,0.00,,2013-05-31 03:43:00,
2013-05-30 23:54:00,60.0,-99.9,29.90,SW,225,5.0,8.0,0,-99.99,,,0.00,,2013-05-31 03:54:00,